EW6756 Weather Reports


Display with metric or nautical units.
time (UTC)temp
F
wind
direction
speed
MPH
gust
MPH
rain 1hr
in
rain 24hr
in
rain mn
in
humidity
%
barometer
mb
20260503191003 61 0 0.0 0.0 0.02 0.02 0.02 85 1008.7
20260503190503 61 0 0.0 0.0 0.02 0.02 0.02 84 1008.6
20260503190003 61 0 0.0 0.0 0.01 0.01 0.01 84 1008.7
20260503185503 61 0 0.0 0.0 0.01 0.01 0.01 83 1008.5
20260503185003 61 0 0.0 0.0 0.00 0.00 0.00 83 1008.6
20260503184503 62 0 0.0 0.0 0.00 0.00 0.00 82 1008.4
20260503184003 62 0 0.0 0.0 0.00 0.00 0.00 82 1008.3
20260503183718 62 0 0.0 0.0 0.00 0.00 0.00 81 1008.3
20260503183003 62 0 0.0 0.0 0.00 0.00 0.00 80 1008.2
20260503182503 62 0 0.0 0.0 0.00 0.00 0.00 80 1008.4
20260503182003 62 0 0.0 0.0 0.00 0.00 0.00 80 1007.9
20260503181504 62 343 0.0 3.0 0.00 0.00 0.00 79 1007.9
20260503181003 63 284 0.0 3.0 0.00 0.00 0.00 78 1007.7
20260503180503 63 38 0.0 4.0 0.00 0.00 0.00 78 1007.6
20260503180003 63 52 0.0 4.0 0.00 0.00 0.00 78 1007.5
20260503175503 64 86 0.0 3.0 0.00 0.00 0.00 78 1007.5
20260503175003 64 180 0.0 4.0 0.00 0.00 0.00 78 1007.7
20260503174718 64 168 0.0 4.0 0.00 0.00 0.00 77 1007.8
20260503174003 65 196 1.0 5.0 0.00 0.00 0.00 77 1007.7
20260503173503 65 229 1.0 7.0 0.00 0.00 0.00 77 1007.9
20260503173003 66 85 1.0 7.0 0.00 0.00 0.00 77 1007.6
20260503172503 66 254 1.0 5.0 0.00 0.00 0.00 75 1007.2
20260503172003 66 298 1.0 4.0 0.00 0.00 0.00 75 1007.1
20260503171503 66 265 1.0 10.0 0.00 0.00 0.00 74 1006.8
20260503171003 67 13 2.0 10.0 0.00 0.00 0.00 73 1006.9
20260503170503 67 33 4.0 10.0 0.00 0.00 0.00 73 1006.3
20260503151003 72 75 1.0 5.0 0.00 0.00 0.00 63 1007.2
20260503150503 72 145 1.0 5.0 0.00 0.00 0.00 64 1007.1
20260503150217 72 171 1.0 5.0 0.00 0.00 0.00 64 1007.3
20260503131217 72 245 2.0 8.0 0.00 0.00 0.00 64 1009.4
20260503130503 71 225 2.0 7.0 0.00 0.00 0.00 65 1009.3
20260503120216 71 222 2.0 7.0 0.00 0.00 0.00 66 1009.8
20260503110504 72 205 2.0 5.0 0.00 0.00 0.00 66 1010.4
20260503090503 69 214 2.0 7.0 0.00 0.00 0.00 70 1011.3
20260503090217 70 225 2.0 8.0 0.00 0.00 0.00 70 1011.2
20260503081503 66 243 2.0 7.0 0.00 0.00 0.00 76 1011.2
20260503081003 66 235 2.0 7.0 0.00 0.00 0.00 76 1011.5
20260503080503 65 223 1.0 4.0 0.00 0.00 0.00 77 1011.5
20260503080217 65 195 1.0 5.0 0.00 0.00 0.00 77 1011.6
20260503072503 61 26 0.0 1.0 0.00 0.00 0.00 82 1011.5
20260503072217 60 28 0.0 1.0 0.00 0.00 0.00 83 1011.5
20260503071503 59 34 0.0 1.0 0.00 0.00 0.00 84 1011.4
20260503071003 58 0 0.0 0.0 0.00 0.00 0.00 85 1011.6
20260503070718 58 0 0.0 0.0 0.00 0.00 0.00 85 1011.6
20260503055003 56 43 1.0 3.0 0.00 0.00 0.00 88 1011.7
20260503054503 56 42 1.0 4.0 0.00 0.00 0.00 88 1011.8
20260503054003 56 39 1.0 4.0 0.00 0.00 0.00 90 1011.7
20260503053717 56 39 1.0 4.0 0.00 0.00 0.00 90 1011.9
20260503053218 55 39 0.0 1.0 0.00 0.00 0.00 90 1011.8
20260503052503 54 0 0.0 0.0 0.00 0.00 0.00 92 1011.8
20260503052218 54 0 0.0 0.0 0.00 0.00 0.00 92 1011.6
20260503051503 53 0 0.0 0.0 0.00 0.00 0.00 93 1012.2
20260503051003 53 0 0.0 0.0 0.00 0.00 0.00 93 1012.0
20260503050503 52 0 0.0 0.0 0.00 0.00 0.00 94 1012.0
20260503050218 52 0 0.0 0.0 0.00 0.00 0.00 94 1012.1
20260503045503 52 0 0.0 0.0 0.00 0.00 0.00 94 1012.1
20260503045003 51 40 0.0 1.0 0.00 0.00 0.00 94 1012.0
20260503044503 51 44 0.0 3.0 0.00 0.00 0.00 93 1012.1
20260503044003 50 44 0.0 3.0 0.00 0.00 0.00 93 1011.8
20260503043504 50 322 0.0 5.0 0.00 0.00 0.00 93 1011.8
20260503043004 50 322 0.0 5.0 0.00 0.00 0.00 94 1011.7
20260503042503 50 0 0.0 0.0 0.00 0.00 0.00 93 1011.9
20260503042003 49 27 0.0 1.0 0.00 0.00 0.00 93 1011.8
20260503041503 49 36 1.0 3.0 0.00 0.00 0.00 93 1011.9
20260503041003 48 39 1.0 3.0 0.00 0.00 0.00 91 1011.5
20260503040503 48 43 0.0 3.0 0.00 0.00 0.00 90 1011.4
20260503040004 49 0 0.0 0.0 0.00 0.00 0.00 91 1011.7
20260503035716 49 27 0.0 1.0 0.00 0.00 0.00 91 1012.0
20260503035217 49 27 1.0 3.0 0.00 0.00 0.00 91 1012.0
20260503034503 49 27 1.0 3.0 0.00 0.00 0.00 91 1011.7
20260503034003 49 0 0.0 0.0 0.00 0.00 0.00 91 1011.8
20260503033503 49 0 0.0 0.0 0.00 0.00 0.00 91 1011.8
20260503033003 48 6 0.0 1.0 0.00 0.00 0.00 91 1011.9
20260503032718 48 6 0.0 1.0 0.00 0.00 0.00 91 1011.7
20260503032003 48 0 0.0 0.0 0.00 0.00 0.00 90 1011.6
20260503031503 48 0 0.0 0.0 0.00 0.00 0.00 90 1011.7
20260503031003 48 0 0.0 0.0 0.00 0.00 0.00 90 1011.8
20260503030503 48 0 0.0 0.0 0.00 0.00 0.00 90 1012.0
20260503030217 48 0 0.0 0.0 0.00 0.00 0.00 89 1012.2
20260503025503 48 0 0.0 0.0 0.00 0.00 0.00 88 1012.1
20260503025003 49 0 0.0 0.0 0.00 0.00 0.00 88 1012.1
20260503024503 49 0 0.0 0.0 0.00 0.00 0.00 88 1012.1
20260503024217 49 0 0.0 0.0 0.00 0.00 0.00 87 1012.1
20260503023503 50 0 0.0 0.0 0.00 0.00 0.00 88 1012.2
20260503023003 50 0 0.0 0.0 0.00 0.00 0.00 89 1012.2
20260503022503 50 0 0.0 0.0 0.00 0.00 0.00 89 1012.3
20260503022003 50 0 0.0 0.0 0.00 0.00 0.00 89 1012.3
20260503021503 51 0 0.0 0.0 0.00 0.00 0.00 88 1012.3
20260503021003 51 0 0.0 0.0 0.00 0.00 0.00 88 1012.2
20260503020718 51 0 0.0 0.0 0.00 0.00 0.00 88 1012.3
20260503020003 51 0 0.0 0.0 0.00 0.00 0.00 88 1012.3
20260503015503 51 0 0.0 0.0 0.00 0.00 0.00 87 1012.4
20260503015003 51 0 0.0 0.0 0.00 0.00 0.00 88 1012.4
20260503014503 52 0 0.0 0.0 0.00 0.00 0.00 87 1012.3
20260503014003 52 0 0.0 0.0 0.00 0.00 0.00 88 1012.4
20260503013503 52 3 0.0 1.0 0.00 0.00 0.00 88 1012.5
20260503013003 52 3 0.0 1.0 0.00 0.00 0.00 88 1012.5
20260503012503 52 3 0.0 1.0 0.00 0.00 0.00 88 1012.6
20260503012003 52 3 0.0 1.0 0.00 0.00 0.00 88 1012.8
20260503011503 52 358 0.0 3.0 0.00 0.00 0.00 88 1012.8
20260503011216 52 358 0.0 3.0 0.00 0.00 0.00 88 1012.9
20260503010503 52 0 0.0 0.0 0.00 0.00 0.00 87 1013.1
20260503010218 52 0 0.0 0.0 0.00 0.00 0.00 87 1013.0
20260503005503 53 0 0.0 0.0 0.00 0.00 0.00 86 1013.2
20260503005003 53 0 0.0 0.0 0.00 0.00 0.00 86 1013.2
20260503004503 53 0 0.0 0.0 0.00 0.00 0.00 87 1013.5
20260503004003 54 0 0.0 0.0 0.00 0.00 0.00 87 1013.2
20260503003503 54 0 0.0 0.0 0.00 0.00 0.00 87 1013.6
20260503003003 54 216 0.0 3.0 0.00 0.00 0.00 87 1013.8
20260503002503 54 232 0.0 3.0 0.00 0.00 0.00 88 1013.7
20260503002218 54 215 0.0 3.0 0.00 0.00 0.00 88 1014.0
20260503001503 53 202 1.0 5.0 0.00 0.00 0.00 88 1014.1
20260503001003 53 244 2.0 8.0 0.00 0.00 0.00 88 1014.3
20260503000503 53 241 2.0 8.0 0.00 0.00 0.00 88 1014.4
20260503000003 53 207 2.0 7.0 0.00 0.00 0.00 87 1014.6
20260502235503 53 0 0.0 0.0 0.00 0.00 0.00 86 1014.0
20260502235003 52 0 0.0 0.0 0.00 0.00 0.00 86 1013.8
20260502234503 52 0 0.0 0.0 0.00 0.00 0.00 85 1014.0
20260502234003 52 0 0.0 0.0 0.00 0.00 0.00 85 1013.9
20260502233503 52 0 0.0 0.0 0.00 0.00 0.00 85 1013.7
20260502233003 52 0 0.0 0.0 0.00 0.00 0.00 84 1014.0
20260502232503 52 0 0.0 0.0 0.00 0.00 0.00 85 1013.9
20260502232003 53 0 0.0 0.0 0.00 0.00 0.00 85 1013.9
20260502231503 53 0 0.0 0.0 0.00 0.00 0.00 85 1013.8
20260502231003 53 0 0.0 0.0 0.00 0.00 0.00 85 1013.8
20260502230503 52 0 0.0 0.0 0.00 0.00 0.00 84 1014.1
20260502230003 53 0 0.0 0.0 0.00 0.00 0.00 84 1013.9
20260502225503 53 0 0.0 0.0 0.00 0.00 0.00 84 1013.8
20260502225003 53 0 0.0 0.0 0.00 0.00 0.00 84 1013.9
20260502224503 53 0 0.0 0.0 0.00 0.00 0.00 84 1014.0
20260502224003 53 0 0.0 0.0 0.00 0.00 0.00 83 1013.9
20260502223503 53 0 0.0 0.0 0.00 0.00 0.00 83 1014.1
20260502223003 53 0 0.0 0.0 0.00 0.00 0.00 83 1014.0
20260502222503 53 0 0.0 0.0 0.00 0.00 0.00 82 1014.0
20260502222003 53 0 0.0 0.0 0.00 0.00 0.00 82 1013.9
20260502221718 53 0 0.0 0.0 0.00 0.00 0.00 83 1013.8
20260502221003 53 0 0.0 0.0 0.00 0.00 0.00 82 1013.9
20260502220718 53 0 0.0 0.0 0.00 0.00 0.00 82 1013.8
20260502220003 53 0 0.0 0.0 0.00 0.00 0.00 82 1013.9
20260502215503 53 0 0.0 0.0 0.00 0.00 0.00 81 1013.8
20260502215003 53 0 0.0 0.0 0.00 0.00 0.00 81 1014.0
20260502214503 54 0 0.0 0.0 0.00 0.00 0.00 81 1013.9
20260502214003 54 0 0.0 0.0 0.00 0.00 0.00 81 1014.0
20260502213503 55 0 0.0 0.0 0.00 0.00 0.00 80 1014.1
20260502213003 55 0 0.0 0.0 0.00 0.00 0.00 80 1014.2
20260502212503 55 0 0.0 0.0 0.00 0.00 0.00 80 1014.1
20260502212217 55 0 0.0 0.0 0.00 0.00 0.00 79 1014.2
20260502211503 56 0 0.0 0.0 0.00 0.00 0.00 79 1014.3
20260502211003 56 0 0.0 0.0 0.00 0.00 0.00 79 1014.1
20260502210503 56 0 0.0 0.0 0.00 0.00 0.00 78 1014.4
20260502210003 56 0 0.0 0.0 0.00 0.00 0.00 78 1014.3
20260502205503 56 0 0.0 0.0 0.00 0.00 0.00 78 1014.3
20260502205003 57 0 0.0 0.0 0.00 0.00 0.00 78 1014.4
20260502204503 57 0 0.0 0.0 0.00 0.00 0.00 77 1014.5
20260502204217 57 0 0.0 0.0 0.00 0.00 0.00 77 1014.4
20260502203503 58 0 0.0 0.0 0.00 0.00 0.00 77 1014.5
20260502203003 58 0 0.0 0.0 0.00 0.00 0.00 77 1014.4
20260502202503 58 0 0.0 0.0 0.00 0.00 0.00 77 1014.5
20260502202216 58 0 0.0 0.0 0.00 0.00 0.00 77 1014.4
20260502201717 58 0 0.0 0.0 0.00 0.00 0.00 77 1014.5
20260502201003 58 0 0.0 0.0 0.00 0.00 0.00 76 1014.4
20260502200503 58 0 0.0 0.0 0.00 0.00 0.00 74 1014.6
20260502200003 58 0 0.0 0.0 0.00 0.00 0.00 74 1014.6
20260502195503 58 0 0.0 0.0 0.00 0.00 0.00 74 1014.6
20260502195216 58 0 0.0 0.0 0.00 0.00 0.00 74 1014.5
20260502194717 58 0 0.0 0.0 0.00 0.00 0.00 74 1014.6
20260502194003 58 0 0.0 0.0 0.00 0.00 0.00 73 1014.5
20260502193503 59 0 0.0 0.0 0.00 0.00 0.00 72 1014.5
20260502193218 59 0 0.0 0.0 0.00 0.00 0.00 72 1014.6
20260502192503 60 0 0.0 0.0 0.00 0.00 0.00 70 1014.2
20260502192003 60 0 0.0 0.0 0.00 0.00 0.00 70 1014.3
20260502191503 61 0 0.0 0.0 0.00 0.00 0.00 69 1014.3